When you browse on this site, cookies collect data to enhance your experience and personalize the content and advertising you see.
Visit our Privacy Policy to learn more. By continuing to use the site, you agree to this use of cookies and data.
  • In Schweiz
  • Länderverzeichnis
  • Für 7 Tage
  • Wassertemperatur
  • Wetterkarte
  • Widgets
  • user-avatar
    Anmelden

    Stündliche Wetter Saurimo

    Heute, 15 September, Sonntag

    Zeit Temperatur Niederschläge Wind Luftdruck Luftfeuchtigkeit
    00:00 +25°C° 0 mm 1 m/S 670 mmHg 53%
    01:00 +24°C° 0 mm 1 m/S 669 mmHg 58%
    02:00 +24°C° 0 mm 1 m/S 669 mmHg 63%
    03:00 +23°C° 0 mm 1 m/S 669 mmHg 67%
    04:00 +21°C° 0 mm 0 m/S 670 mmHg 72%
    05:00 +23°C° 0 mm 1 m/S 670 mmHg 72%
    06:00 +24°C° 0 mm 1 m/S 671 mmHg 71%
    07:00 +25°C° 0 mm 2 m/S 671 mmHg 71%
    08:00 +27°C° 0 mm 2 m/S 672 mmHg 63%
    09:00 +29°C° 0 mm 1 m/S 672 mmHg 55%
    10:00 +31°C° 0 mm 1 m/S 673 mmHg 47%
    11:00 +32°C° 0 mm 1 m/S 672 mmHg 42%
    12:00 +32°C° 0 mm 0 m/S 671 mmHg 38%
    13:00 +33°C° 0 mm 0 m/S 670 mmHg 33%
    14:00 +34°C° 0 mm 1 m/S 670 mmHg 35%
    15:00 +34°C° 0 mm 2 m/S 670 mmHg 37%
    16:00 +33°C° 0 mm 3 m/S 670 mmHg 38%
    17:00 +30°C° 0 mm 2 m/S 670 mmHg 44%
    18:00 +29°C° 0 mm 2 m/S 670 mmHg 50%
    19:00 +27°C° 0 mm 1 m/S 670 mmHg 56%
    20:00 +27°C° 0 mm 1 m/S 670 mmHg 56%
    21:00 +27°C° 0 mm 1 m/S 670 mmHg 56%
    22:00 +27°C° 0 mm 1 m/S 670 mmHg 56%
    23:00 +26°C° 0 mm 1 m/S 670 mmHg 59%

    Morgen, 16 September, Montag

    Zeit Temperatur Niederschläge Wind Luftdruck Luftfeuchtigkeit
    00:00 +25°C° 0 mm 1 m/S 669 mmHg 61%
    01:00 +24°C° 0 mm 1 m/S 668 mmHg 64%
    02:00 +24°C° 0 mm 1 m/S 668 mmHg 67%
    03:00 +23°C° 0 mm 1 m/S 669 mmHg 70%
    04:00 +22°C° 0 mm 1 m/S 669 mmHg 73%
    05:00 +23°C° 0 mm 1 m/S 670 mmHg 73%
    06:00 +24°C° 0 mm 2 m/S 670 mmHg 72%
    07:00 +24°C° 0 mm 2 m/S 671 mmHg 71%
    08:00 +27°C° 0 mm 2 m/S 672 mmHg 62%
    09:00 +29°C° 0 mm 2 m/S 672 mmHg 52%
    10:00 +32°C° 0 mm 2 m/S 672 mmHg 42%
    11:00 +35°C° 0 mm 2 m/S 672 mmHg 37%
    12:00 +35°C° 0 mm 1 m/S 672 mmHg 33%
    13:00 +37°C° 0 mm 1 m/S 671 mmHg 29%
    14:00 +36°C° 0 mm 1 m/S 671 mmHg 30%
    15:00 +35°C° 0 mm 2 m/S 670 mmHg 31%
    16:00 +34°C° 0 mm 2 m/S 669 mmHg 32%
    17:00 +31°C° 0 mm 2 m/S 669 mmHg 40%
    18:00 +28°C° 0 mm 1 m/S 669 mmHg 49%
    19:00 +26°C° 0 mm 1 m/S 669 mmHg 57%
    20:00 +26°C° 0 mm 1 m/S 669 mmHg 55%
    21:00 +24°C° 0 mm 0 m/S 670 mmHg 53%
    22:00 +24°C° 0 mm 0 m/S 670 mmHg 51%
    23:00 +24°C° 0 mm 0 m/S 670 mmHg 53%

    übermorgen, 17 September, Dienstag

    Zeit Temperatur Niederschläge Wind Luftdruck Luftfeuchtigkeit
    00:00 +25°C° 0 mm 1 m/S 669 mmHg 55%
    01:00 +24°C° 0 mm 1 m/S 669 mmHg 57%
    02:00 +24°C° 0 mm 1 m/S 669 mmHg 59%
    03:00 +23°C° 0 mm 1 m/S 669 mmHg 60%
    04:00 +23°C° 0 mm 1 m/S 669 mmHg 62%
    05:00 +24°C° 0 mm 1 m/S 670 mmHg 60%
    06:00 +25°C° 0 mm 1 m/S 670 mmHg 57%
    07:00 +26°C° 0 mm 2 m/S 671 mmHg 55%
    08:00 +29°C° 0 mm 2 m/S 672 mmHg 48%
    09:00 +31°C° 0 mm 2 m/S 672 mmHg 41%
    10:00 +35°C° 0 mm 2 m/S 672 mmHg 33%
    11:00 +35°C° 0 mm 2 m/S 671 mmHg 31%
    12:00 +35°C° 0 mm 2 m/S 671 mmHg 28%
    13:00 +36°C° 0 mm 2 m/S 670 mmHg 26%
    14:00 +35°C° 0 mm 2 m/S 669 mmHg 26%
    15:00 +35°C° 0 mm 2 m/S 669 mmHg 27%
    16:00 +35°C° 0 mm 2 m/S 669 mmHg 27%
    17:00 +32°C° 0 mm 1 m/S 669 mmHg 31%
    18:00 +30°C° 0 mm 1 m/S 668 mmHg 35%
    19:00 +28°C° 0 mm 1 m/S 668 mmHg 39%
    20:00 +27°C° 0 mm 1 m/S 668 mmHg 41%
    21:00 +26°C° 0 mm 1 m/S 668 mmHg 43%
    22:00 +25°C° 0 mm 1 m/S 669 mmHg 45%
    23:00 +25°C° 0 mm 1 m/S 668 mmHg 48%

    18 September, Mittwoch

    Zeit Temperatur Niederschläge Wind Luftdruck Luftfeuchtigkeit
    00:00 +24°C° 0 mm 1 m/S 668 mmHg 50%
    01:00 +23°C° 0 mm 1 m/S 668 mmHg 53%
    02:00 +23°C° 0 mm 1 m/S 668 mmHg 54%
    03:00 +22°C° 0 mm 1 m/S 668 mmHg 56%
    04:00 +20°C° 0 mm 0 m/S 669 mmHg 58%
    05:00 +23°C° 0 mm 1 m/S 669 mmHg 55%
    06:00 +24°C° 0 mm 1 m/S 670 mmHg 53%
    07:00 +25°C° 0 mm 1 m/S 670 mmHg 51%
    08:00 +28°C° 0 mm 1 m/S 671 mmHg 43%
    09:00 +32°C° 0 mm 1 m/S 672 mmHg 35%
    10:00 +36°C° 0 mm 1 m/S 672 mmHg 26%
    11:00 +37°C° 0 mm 1 m/S 672 mmHg 24%
    12:00 +39°C° 0 mm 1 m/S 671 mmHg 22%
    13:00 +40°C° 0 mm 1 m/S 670 mmHg 20%
    14:00 +39°C° 0 mm 2 m/S 670 mmHg 21%
    15:00 +37°C° 0 mm 2 m/S 669 mmHg 23%
    16:00 +36°C° 0 mm 2 m/S 669 mmHg 24%
    17:00 +34°C° 0 mm 2 m/S 669 mmHg 29%
    18:00 +31°C° 0 mm 2 m/S 669 mmHg 34%
    19:00 +29°C° 0 mm 1 m/S 669 mmHg 39%
    20:00 +28°C° 0 mm 2 m/S 669 mmHg 45%
    21:00 +26°C° 0 mm 2 m/S 669 mmHg 51%
    22:00 +25°C° 0 mm 2 m/S 669 mmHg 58%
    23:00 +24°C° 0 mm 2 m/S 669 mmHg 63%

    19 September, Donnerstag

    Zeit Temperatur Niederschläge Wind Luftdruck Luftfeuchtigkeit
    00:00 +24°C° 0 mm 2 m/S 669 mmHg 68%
    01:00 +23°C° 0 mm 1 m/S 668 mmHg 73%
    02:00 +23°C° 0 mm 1 m/S 669 mmHg 74%
    03:00 +23°C° 0 mm 1 m/S 669 mmHg 76%
    04:00 +22°C° 0 mm 1 m/S 670 mmHg 78%
    05:00 +23°C° 0.2 mm 1 m/S 670 mmHg 76%
    06:00 +23°C° 0.2 mm 1 m/S 671 mmHg 75%
    07:00 +24°C° 0.2 mm 1 m/S 672 mmHg 73%
    08:00 +27°C° 0 mm 2 m/S 672 mmHg 63%
    09:00 +29°C° 0 mm 2 m/S 672 mmHg 52%
    10:00 +32°C° 0 mm 2 m/S 672 mmHg 41%
    11:00 +35°C° 0 mm 2 m/S 672 mmHg 36%
    12:00 +37°C° 0 mm 1 m/S 672 mmHg 30%
    13:00 +40°C° 0 mm 1 m/S 672 mmHg 25%
    14:00 +36°C° 0.4 mm 2 m/S 670 mmHg 34%
    15:00 +33°C° 0.4 mm 3 m/S 669 mmHg 44%
    16:00 +28°C° 0.4 mm 4 m/S 668 mmHg 53%
    17:00 +28°C° 0.2 mm 3 m/S 668 mmHg 55%
    18:00 +27°C° 0.2 mm 2 m/S 669 mmHg 56%
    19:00 +26°C° 0.2 mm 1 m/S 669 mmHg 58%
    20:00 +25°C° 0 mm 1 m/S 669 mmHg 60%
    21:00 +25°C° 0 mm 1 m/S 670 mmHg 62%
    22:00 +24°C° 0 mm 1 m/S 670 mmHg 63%
    23:00 +24°C° 0 mm 1 m/S 670 mmHg 66%

    20 September, Freitag

    Zeit Temperatur Niederschläge Wind Luftdruck Luftfeuchtigkeit
    00:00 +23°C° 0 mm 1 m/S 669 mmHg 68%
    01:00 +23°C° 0 mm 2 m/S 669 mmHg 70%
    02:00 +21°C° 0 mm 2 m/S 669 mmHg 75%
    03:00 +22°C° 0 mm 1 m/S 669 mmHg 79%
    04:00 +21°C° 0 mm 1 m/S 669 mmHg 83%
    05:00 +21°C° 0 mm 2 m/S 670 mmHg 80%
    06:00 +23°C° 0 mm 2 m/S 670 mmHg 76%
    07:00 +24°C° 0 mm 2 m/S 671 mmHg 73%
    08:00 +27°C° 0 mm 2 m/S 671 mmHg 62%
    09:00 +30°C° 0 mm 3 m/S 672 mmHg 51%
    10:00 +34°C° 0 mm 3 m/S 672 mmHg 41%
    11:00 +36°C° 0 mm 2 m/S 671 mmHg 35%
    12:00 +38°C° 0 mm 2 m/S 671 mmHg 29%
    13:00 +40°C° 0 mm 1 m/S 671 mmHg 23%
    14:00 +37°C° 0 mm 1 m/S 670 mmHg 26%
    15:00 +36°C° 0 mm 2 m/S 670 mmHg 29%
    16:00 +34°C° 0 mm 2 m/S 669 mmHg 32%
    17:00 +31°C° 0.4 mm 2 m/S 669 mmHg 40%
    18:00 +28°C° 0.4 mm 2 m/S 669 mmHg 49%
    19:00 +25°C° 0.4 mm 2 m/S 669 mmHg 57%
    20:00 +25°C° 0.1 mm 2 m/S 669 mmHg 59%
    21:00 +24°C° 0.1 mm 2 m/S 669 mmHg 62%
    22:00 +24°C° 0.1 mm 2 m/S 670 mmHg 64%
    23:00 +23°C° 0 mm 1 m/S 669 mmHg 67%
    Mehr zeigen